| time (UTC) | temp C | wind direction | speed KPH | gust KPH | rain 1hr cm | rain 24hr cm | rain mn cm | humidity % | barometer mb |
| 20260502161635 | 29 | 0.0 | 0.0 | 0.00 | 0.00 | 0.00 | 24 | 1013.1 | |
| 20260502160635 | 29 | 0.0 | 0.0 | 0.00 | 0.00 | 0.00 | 24 | 1013.1 | |
| 20260502151629 | 28 | 0.0 | 0.0 | 0.00 | 0.00 | 0.00 | 24 | 1012.7 | |
| 20260502150556 | 27 | 0.0 | 0.0 | 0.00 | 0.00 | 0.00 | 23 | 1012.7 | |
| 20260502130400 | 22 | 0.0 | 0.0 | 0.00 | 0.00 | 0.00 | 22 | 1010.8 | |
| 20260502123325 | 22 | 0.0 | 0.0 | 0.00 | 0.00 | 0.00 | 23 | 1010.4 | |
| 20260502122324 | 22 | 0.0 | 0.0 | 0.00 | 0.00 | 0.00 | 23 | 1010.4 | |
| 20260502121323 | 22 | 0.0 | 0.0 | 0.00 | 0.00 | 0.00 | 22 | 1010.5 | |
| 20260502120322 | 22 | 0.0 | 0.0 | 0.00 | 0.00 | 0.00 | 22 | 1010.5 | |
| 20260502115320 | 23 | 0.0 | 0.0 | 0.00 | 0.00 | 0.00 | 22 | 1010.2 | |
| 20260502114318 | 23 | 0.0 | 0.0 | 0.00 | 0.00 | 0.00 | 21 | 1010.2 | |
| 20260502113306 | 23 | 0.0 | 0.0 | 0.00 | 0.00 | 0.00 | 21 | 1010.2 | |
| 20260502112306 | 23 | 0.0 | 0.0 | 0.00 | 0.00 | 0.00 | 21 | 1010.2 | |
| 20260502111304 | 23 | 0.0 | 0.0 | 0.00 | 0.00 | 0.00 | 21 | 1010.2 | |
| 20260502110231 | 23 | 0.0 | 0.0 | 0.00 | 0.00 | 0.00 | 22 | 1010.2 | |
| 20260502105230 | 23 | 0.0 | 0.0 | 0.00 | 0.00 | 0.00 | 22 | 1010.2 | |
| 20260502104229 | 23 | 0.0 | 0.0 | 0.00 | 0.00 | 0.00 | 22 | 1010.2 | |
| 20260502103228 | 23 | 0.0 | 0.0 | 0.00 | 0.00 | 0.00 | 22 | 1009.9 | |
| 20260502102227 | 23 | 0.0 | 0.0 | 0.00 | 0.00 | 0.00 | 23 | 1009.8 | |
| 20260502101226 | 23 | 0.0 | 0.0 | 0.00 | 0.00 | 0.00 | 23 | 1009.8 | |
| 20260502100225 | 23 | 0.0 | 0.0 | 0.00 | 0.00 | 0.00 | 23 | 1009.8 | |
| 20260502091221 | 23 | 0.0 | 0.0 | 0.00 | 0.00 | 0.00 | 22 | 1009.5 | |
| 20260502090220 | 23 | 0.0 | 0.0 | 0.00 | 0.00 | 0.00 | 22 | 1009.5 | |
| 20260502071138 | 26 | 0.0 | 0.0 | 0.00 | 0.00 | 0.00 | 16 | 1008.8 | |
| 20260502070137 | 26 | 0.0 | 0.0 | 0.00 | 0.00 | 0.00 | 16 | 1008.9 | |
| 20260502065136 | 26 | 0.0 | 0.0 | 0.00 | 0.00 | 0.00 | 16 | 1008.9 | |
| 20260502064134 | 26 | 0.0 | 0.0 | 0.00 | 0.00 | 0.00 | 16 | 1008.8 | |
| 20260502063102 | 26 | 0.0 | 0.0 | 0.00 | 0.00 | 0.00 | 16 | 1008.8 | |
| 20260502062101 | 26 | 0.0 | 0.0 | 0.00 | 0.00 | 0.00 | 16 | 1008.8 | |
| 20260502061100 | 26 | 0.0 | 0.0 | 0.00 | 0.00 | 0.00 | 17 | 1008.7 | |
| 20260502060058 | 26 | 0.0 | 0.0 | 0.00 | 0.00 | 0.00 | 17 | 1008.7 | |
| 20260502055027 | 27 | 0.0 | 0.0 | 0.00 | 0.00 | 0.00 | 16 | 1008.4 | |
| 20260502054026 | 27 | 0.0 | 0.0 | 0.00 | 0.00 | 0.00 | 15 | 1008.4 | |
| 20260502052953 | 27 | 0.0 | 0.0 | 0.00 | 0.00 | 0.00 | 16 | 1008.4 | |
| 20260502051953 | 26 | 0.0 | 0.0 | 0.00 | 0.00 | 0.00 | 16 | 1008.4 | |
| 20260502050952 | 27 | 0.0 | 0.0 | 0.00 | 0.00 | 0.00 | 16 | 1008.4 | |
| 20260502045951 | 27 | 0.0 | 0.0 | 0.00 | 0.00 | 0.00 | 16 | 1008.4 | |
| 20260502044950 | 27 | 0.0 | 0.0 | 0.00 | 0.00 | 0.00 | 15 | 1008.4 | |
| 20260502043949 | 27 | 0.0 | 0.0 | 0.00 | 0.00 | 0.00 | 15 | 1008.4 | |
| 20260502042948 | 28 | 0.0 | 0.0 | 0.00 | 0.00 | 0.00 | 15 | 1008.0 | |
| 20260502041947 | 28 | 0.0 | 0.0 | 0.00 | 0.00 | 0.00 | 15 | 1008.0 | |
| 20260502040915 | 28 | 0.0 | 0.0 | 0.00 | 0.00 | 0.00 | 15 | 1008.0 | |
| 20260502035843 | 28 | 0.0 | 0.0 | 0.00 | 0.00 | 0.00 | 15 | 1008.0 | |
| 20260502034842 | 28 | 0.0 | 0.0 | 0.00 | 0.00 | 0.00 | 15 | 1007.7 | |
| 20260502033841 | 28 | 0.0 | 0.0 | 0.00 | 0.00 | 0.00 | 15 | 1007.7 | |
| 20260502032840 | 28 | 0.0 | 0.0 | 0.00 | 0.00 | 0.00 | 15 | 1007.7 | |
| 20260502031807 | 28 | 0.0 | 0.0 | 0.00 | 0.00 | 0.00 | 16 | 1007.3 | |
| 20260502030806 | 28 | 0.0 | 0.0 | 0.00 | 0.00 | 0.00 | 16 | 1007.3 | |
| 20260502025805 | 28 | 0.0 | 0.0 | 0.00 | 0.00 | 0.00 | 16 | 1006.9 | |
| 20260502022154 | 30 | 0.0 | 0.0 | 0.00 | 0.00 | 0.00 | 16 | 1007.0 | |
| 20260502021152 | 30 | 0.0 | 0.0 | 0.00 | 0.00 | 0.00 | 16 | 1007.0 | |
| 20260502020152 | 31 | 0.0 | 0.0 | 0.00 | 0.00 | 0.00 | 16 | 1006.6 | |
| 20260502015151 | 31 | 0.0 | 0.0 | 0.00 | 0.00 | 0.00 | 16 | 1007.0 | |
| 20260502014149 | 31 | 0.0 | 0.0 | 0.00 | 0.00 | 0.00 | 15 | 1006.6 | |
| 20260502013148 | 31 | 0.0 | 0.0 | 0.00 | 0.00 | 0.00 | 15 | 1006.6 | |
| 20260502012147 | 31 | 0.0 | 0.0 | 0.00 | 0.00 | 0.00 | 15 | 1006.6 | |
| 20260502011146 | 32 | 0.0 | 0.0 | 0.00 | 0.00 | 0.00 | 16 | 1006.9 | |
| 20260502010145 | 31 | 0.0 | 0.0 | 0.00 | 0.00 | 0.00 | 16 | 1006.6 | |
| 20260502005144 | 32 | 0.0 | 0.0 | 0.00 | 0.00 | 0.00 | 16 | 1006.6 | |
| 20260502004143 | 32 | 0.0 | 0.0 | 0.00 | 0.00 | 0.00 | 15 | 1006.9 | |
| 20260502003111 | 32 | 0.0 | 0.0 | 0.00 | 0.00 | 0.00 | 15 | 1007.0 | |
| 20260502002110 | 32 | 0.0 | 0.0 | 0.00 | 0.00 | 0.00 | 15 | 1006.7 | |
| 20260502001108 | 32 | 0.0 | 0.0 | 0.00 | 0.00 | 0.00 | 16 | 1006.7 | |
| 20260502000107 | 32 | 0.0 | 0.0 | 0.00 | 0.00 | 0.00 | 16 | 1006.7 | |
| 20260501232122 | 32 | 0.0 | 0.0 | 0.00 | 0.00 | 0.00 | 17 | 1007.0 | |
| 20260501231121 | 32 | 0.0 | 0.0 | 0.00 | 0.00 | 0.00 | 17 | 1007.0 | |
| 20260501230120 | 32 | 0.0 | 0.0 | 0.00 | 0.00 | 0.00 | 18 | 1007.0 | |
| 20260501225120 | 32 | 0.0 | 0.0 | 0.00 | 0.00 | 0.00 | 17 | 1007.4 | |
| 20260501224118 | 32 | 0.0 | 0.0 | 0.00 | 0.00 | 0.00 | 17 | 1007.4 | |
| 20260501223117 | 32 | 0.0 | 0.0 | 0.00 | 0.00 | 0.00 | 19 | 1007.4 | |
| 20260501222116 | 32 | 0.0 | 0.0 | 0.00 | 0.00 | 0.00 | 19 | 1007.7 | |
| 20260501221115 | 31 | 0.0 | 0.0 | 0.00 | 0.00 | 0.00 | 17 | 1007.7 | |
| 20260501220114 | 31 | 0.0 | 0.0 | 0.00 | 0.00 | 0.00 | 18 | 1007.8 | |
| 20260501215113 | 31 | 0.0 | 0.0 | 0.00 | 0.00 | 0.00 | 19 | 1008.1 | |
| 20260501214112 | 32 | 0.0 | 0.0 | 0.00 | 0.00 | 0.00 | 19 | 1008.2 | |
| 20260501213110 | 31 | 0.0 | 0.0 | 0.00 | 0.00 | 0.00 | 19 | 1008.1 | |
| 20260501212109 | 31 | 0.0 | 0.0 | 0.00 | 0.00 | 0.00 | 19 | 1008.5 | |
| 20260501211108 | 31 | 0.0 | 0.0 | 0.00 | 0.00 | 0.00 | 20 | 1008.5 | |
| 20260501210107 | 31 | 0.0 | 0.0 | 0.00 | 0.00 | 0.00 | 20 | 1008.8 | |
| 20260501205034 | 31 | 0.0 | 0.0 | 0.00 | 0.00 | 0.00 | 20 | 1008.8 | |
| 20260501204033 | 31 | 0.0 | 0.0 | 0.00 | 0.00 | 0.00 | 20 | 1008.8 | |
| 20260501203032 | 31 | 0.0 | 0.0 | 0.00 | 0.00 | 0.00 | 20 | 1008.8 | |
| 20260501201959 | 30 | 0.0 | 0.0 | 0.00 | 0.00 | 0.00 | 20 | 1009.1 | |
| 20260501200928 | 30 | 0.0 | 0.0 | 0.00 | 0.00 | 0.00 | 20 | 1009.1 | |
| 20260501195926 | 30 | 0.0 | 0.0 | 0.00 | 0.00 | 0.00 | 21 | 1009.1 | |
| 20260501194854 | 30 | 0.0 | 0.0 | 0.00 | 0.00 | 0.00 | 21 | 1009.2 | |
| 20260501193822 | 30 | 0.0 | 0.0 | 0.00 | 0.00 | 0.00 | 22 | 1009.4 | |
| 20260501192821 | 29 | 0.0 | 0.0 | 0.00 | 0.00 | 0.00 | 22 | 1009.4 | |
| 20260501191820 | 29 | 0.0 | 0.0 | 0.00 | 0.00 | 0.00 | 22 | 1009.8 | |
| 20260501190819 | 28 | 0.0 | 0.0 | 0.00 | 0.00 | 0.00 | 23 | 1009.7 | |
| 20260501185818 | 29 | 0.0 | 0.0 | 0.00 | 0.00 | 0.00 | 22 | 1010.1 | |
| 20260501184817 | 28 | 0.0 | 0.0 | 0.00 | 0.00 | 0.00 | 23 | 1010.1 | |
| 20260501183816 | 28 | 0.0 | 0.0 | 0.00 | 0.00 | 0.00 | 23 | 1010.5 | |
| 20260501182743 | 28 | 0.0 | 0.0 | 0.00 | 0.00 | 0.00 | 23 | 1010.5 | |
| 20260501181742 | 28 | 0.0 | 0.0 | 0.00 | 0.00 | 0.00 | 24 | 1010.8 | |
| 20260501180741 | 27 | 0.0 | 0.0 | 0.00 | 0.00 | 0.00 | 24 | 1010.8 | |
| 20260501172811 | 26 | 0.0 | 0.0 | 0.00 | 0.00 | 0.00 | 26 | 1011.1 | |
| 20260501171810 | 27 | 0.0 | 0.0 | 0.00 | 0.00 | 0.00 | 26 | 1011.2 | |
| 20260501170808 | 27 | 0.0 | 0.0 | 0.00 | 0.00 | 0.00 | 27 | 1011.2 | |
| 20260501165807 | 26 | 0.0 | 0.0 | 0.00 | 0.00 | 0.00 | 28 | 1011.2 | |
| 20260501164633 | 26 | 0.0 | 0.0 | 0.00 | 0.00 | 0.00 | 28 | 1011.1 | |
| 20260501163601 | 25 | 0.0 | 0.0 | 0.00 | 0.00 | 0.00 | 28 | 1011.1 | |
| 20260501162600 | 25 | 0.0 | 0.0 | 0.00 | 0.00 | 0.00 | 29 | 1011.1 |